Time,TemperatureF,DewpointF,PressureIn,WindDirection,WindDirectionDegrees,WindSpeedMPH,WindSpeedGustMPH,Humidity,HourlyPrecipIn,Conditions,Clouds,dailyrainin,SoftwareType,DateUTC
2013-03-09 00:12:00,50.6,27.0,30.21,ENE,72,0.0,0.0,41,0.00,,,0.00,weatherlink.com 1.10,2013-03-09 06:12:00,
2013-03-09 00:27:00,51.1,29.0,30.20,ENE,72,0.0,0.0,42,0.00,,,0.00,weatherlink.com 1.10,2013-03-09 06:27:00,
2013-03-09 00:42:00,51.0,28.0,30.20,ENE,72,0.0,0.0,42,0.00,,,0.00,weatherlink.com 1.10,2013-03-09 06:42:00,
2013-03-09 00:57:00,51.6,28.0,30.20,SSE,167,0.0,1.0,41,0.00,,,0.00,weatherlink.com 1.10,2013-03-09 06:57:00,
2013-03-09 01:12:00,51.9,29.0,30.20,ESE,115,0.0,1.0,41,0.00,,,0.00,weatherlink.com 1.10,2013-03-09 07:12:00,
2013-03-09 01:27:00,52.0,29.0,30.19,East,82,0.0,1.0,41,0.00,,,0.00,weatherlink.com 1.10,2013-03-09 07:27:00,
2013-03-09 01:42:00,52.0,29.0,30.18,ESE,108,1.0,1.0,41,0.00,,,0.00,weatherlink.com 1.10,2013-03-09 07:42:00,
2013-03-09 01:57:00,52.1,29.0,30.18,ENE,75,0.0,1.0,42,0.00,,,0.00,weatherlink.com 1.10,2013-03-09 07:57:00,
2013-03-09 02:12:00,52.2,30.0,30.17,SE,140,0.0,1.0,42,0.00,,,0.00,weatherlink.com 1.10,2013-03-09 08:12:00,
2013-03-09 02:27:00,52.3,30.0,30.16,ESE,104,0.0,1.0,42,0.00,,,0.00,weatherlink.com 1.10,2013-03-09 08:27:00,
2013-03-09 02:42:00,52.1,29.0,30.16,WNW,287,0.0,1.0,42,0.00,,,0.00,weatherlink.com 1.10,2013-03-09 08:42:00,
2013-03-09 02:57:00,52.0,30.0,30.16,SE,126,0.0,1.0,43,0.00,,,0.00,weatherlink.com 1.10,2013-03-09 08:57:00,
2013-03-09 03:12:00,52.1,30.0,30.14,ENE,65,2.0,2.0,43,0.00,,,0.00,weatherlink.com 1.10,2013-03-09 09:12:00,
2013-03-09 03:27:00,52.0,32.0,30.14,SSE,153,0.0,3.0,46,0.00,,,0.00,weatherlink.com 1.10,2013-03-09 09:27:00,
2013-03-09 03:42:00,51.8,32.0,30.14,ESE,106,1.0,3.0,47,0.00,,,0.00,weatherlink.com 1.10,2013-03-09 09:42:00,
2013-03-09 03:57:00,51.9,31.0,30.13,SE,144,1.0,4.0,45,0.00,,,0.00,weatherlink.com 1.10,2013-03-09 09:57:00,
2013-03-09 04:12:00,52.2,31.0,30.12,East,96,1.0,3.0,44,0.00,,,0.00,weatherlink.com 1.10,2013-03-09 10:12:00,
2013-03-09 04:27:00,52.4,31.0,30.12,SSE,160,0.0,3.0,44,0.00,,,0.00,weatherlink.com 1.10,2013-03-09 10:27:00,
2013-03-09 04:42:00,52.6,30.0,30.14,West,270,0.0,1.0,43,0.00,,,0.00,weatherlink.com 1.10,2013-03-09 10:42:00,
2013-03-09 04:57:00,52.6,32.0,30.15,ENE,67,0.0,1.0,45,0.00,,,0.00,weatherlink.com 1.10,2013-03-09 10:57:00,
2013-03-09 05:12:00,52.1,34.0,30.16,ENE,67,0.0,0.0,51,0.00,,,0.00,weatherlink.com 1.10,2013-03-09 11:12:00,
2013-03-09 05:27:00,51.9,33.0,30.16,South,169,0.0,0.0,48,0.00,,,0.00,weatherlink.com 1.10,2013-03-09 11:27:00,
2013-03-09 05:42:00,51.8,32.0,30.16,South,169,0.0,0.0,48,0.00,,,0.00,weatherlink.com 1.10,2013-03-09 11:42:00,
2013-03-09 05:57:00,52.0,32.0,30.17,South,185,0.0,0.0,47,0.00,,,0.00,weatherlink.com 1.10,2013-03-09 11:57:00,
2013-03-09 06:12:00,52.2,31.0,30.18,South,170,1.0,2.0,45,0.00,,,0.00,weatherlink.com 1.10,2013-03-09 12:12:00,
2013-03-09 06:27:00,52.3,31.0,30.18,SSW,204,1.0,3.0,45,0.00,,,0.00,weatherlink.com 1.10,2013-03-09 12:27:00,
2013-03-09 06:42:00,52.4,31.0,30.17,South,191,0.0,1.0,45,0.00,,,0.00,weatherlink.com 1.10,2013-03-09 12:42:00,
2013-03-09 06:57:00,52.5,32.0,30.18,SE,142,0.0,0.0,45,0.00,,,0.00,weatherlink.com 1.10,2013-03-09 12:57:00,
2013-03-09 07:12:00,52.6,32.0,30.18,NE,53,0.0,3.0,46,0.00,,,0.00,weatherlink.com 1.10,2013-03-09 13:12:00,
2013-03-09 07:27:00,52.6,32.0,30.19,SW,223,0.0,1.0,45,0.00,,,0.00,weatherlink.com 1.10,2013-03-09 13:27:00,
2013-03-09 07:42:00,52.8,32.0,30.17,ESE,109,0.0,2.0,45,0.00,,,0.00,weatherlink.com 1.10,2013-03-09 13:42:00,
2013-03-09 07:57:00,53.2,32.0,30.19,SW,221,0.0,2.0,45,0.00,,,0.00,weatherlink.com 1.10,2013-03-09 13:57:00,
2013-03-09 08:13:00,54.0,33.0,30.18,SSE,150,1.0,1.0,45,0.00,,,0.00,weatherlink.com 1.10,2013-03-09 14:13:00,
2013-03-09 08:28:00,55.1,33.0,30.17,East,91,0.0,2.0,43,0.00,,,0.00,weatherlink.com 1.10,2013-03-09 14:28:00,
2013-03-09 08:43:00,57.2,33.0,30.18,SSE,162,1.0,4.0,40,0.00,,,0.00,weatherlink.com 1.10,2013-03-09 14:43:00,
2013-03-09 08:58:00,57.7,33.0,30.18,SSE,167,2.0,5.0,39,0.00,,,0.00,weatherlink.com 1.10,2013-03-09 14:58:00,
2013-03-09 09:28:00,60.5,33.0,30.17,SSW,203,2.0,5.0,36,0.00,,,0.00,weatherlink.com 1.10,2013-03-09 15:28:00,
2013-03-09 09:44:00,60.9,34.0,30.17,SSE,148,1.0,3.0,36,0.00,,,0.00,weatherlink.com 1.10,2013-03-09 15:44:00,
2013-03-09 09:58:00,60.8,33.0,30.16,SSW,195,1.0,3.0,36,0.00,,,0.00,weatherlink.com 1.10,2013-03-09 15:58:00,
2013-03-09 10:13:00,60.7,33.0,30.15,SSW,208,1.0,7.0,35,0.00,,,0.00,weatherlink.com 1.10,2013-03-09 16:13:00,
2013-03-09 10:28:00,61.3,33.0,30.14,South,169,3.0,5.0,35,0.00,,,0.00,weatherlink.com 1.10,2013-03-09 16:28:00,
2013-03-09 10:43:00,62.9,34.0,30.14,WSW,238,3.0,7.0,34,0.00,,,0.00,weatherlink.com 1.10,2013-03-09 16:43:00,
2013-03-09 11:13:00,66.5,36.0,30.14,SSW,201,4.0,6.0,32,0.00,,,0.00,weatherlink.com 1.10,2013-03-09 17:13:00,
2013-03-09 11:28:00,67.2,35.0,30.12,South,186,2.0,7.0,31,0.00,,,0.00,weatherlink.com 1.10,2013-03-09 17:28:00,
2013-03-09 11:43:00,67.2,35.0,30.11,SSW,204,3.0,7.0,30,0.00,,,0.00,weatherlink.com 1.10,2013-03-09 17:43:00,
2013-03-09 11:58:00,67.9,34.0,30.12,SSW,201,4.0,5.0,29,0.00,,,0.00,weatherlink.com 1.10,2013-03-09 17:58:00,
2013-03-09 12:14:00,68.7,35.0,30.10,SSE,163,2.0,5.0,29,0.00,,,0.00,weatherlink.com 1.10,2013-03-09 18:14:00,
2013-03-09 12:28:00,68.8,35.0,30.09,SSE,150,2.0,7.0,29,0.00,,,0.00,weatherlink.com 1.10,2013-03-09 18:28:00,
2013-03-09 12:43:00,67.6,35.0,30.09,SSE,153,5.0,6.0,30,0.00,,,0.00,weatherlink.com 1.10,2013-03-09 18:43:00,
2013-03-09 12:58:00,67.3,35.0,30.08,SE,145,2.0,5.0,30,0.00,,,0.00,weatherlink.com 1.10,2013-03-09 18:58:00,
2013-03-09 13:14:00,67.6,36.0,30.07,SSE,160,2.0,6.0,31,0.00,,,0.00,weatherlink.com 1.10,2013-03-09 19:14:00,
2013-03-09 13:28:00,67.5,35.0,30.06,SSW,200,2.0,6.0,30,0.00,,,0.00,weatherlink.com 1.10,2013-03-09 19:28:00,
2013-03-09 13:43:00,67.6,36.0,30.06,SSW,193,2.0,9.0,31,0.00,,,0.00,weatherlink.com 1.10,2013-03-09 19:43:00,
2013-03-09 13:58:00,69.1,36.0,30.04,WSW,252,4.0,6.0,30,0.00,,,0.00,weatherlink.com 1.10,2013-03-09 19:58:00,
2013-03-09 14:14:00,70.7,37.0,30.03,SSW,207,4.0,8.0,29,0.00,,,0.00,weatherlink.com 1.10,2013-03-09 20:14:00,
2013-03-09 14:29:00,71.6,34.0,30.02,South,174,2.0,10.0,25,0.00,,,0.00,weatherlink.com 1.10,2013-03-09 20:29:00,
2013-03-09 14:44:00,70.9,33.0,30.02,SE,142,3.0,7.0,25,0.00,,,0.00,weatherlink.com 1.10,2013-03-09 20:44:00,
2013-03-09 14:59:00,70.4,34.0,30.02,South,172,3.0,7.0,26,0.00,,,0.00,weatherlink.com 1.10,2013-03-09 20:59:00,
2013-03-09 15:14:00,70.4,32.0,30.01,South,191,5.0,6.0,24,0.00,,,0.00,weatherlink.com 1.10,2013-03-09 21:14:00,
2013-03-09 15:29:00,70.8,33.0,30.00,East,94,3.0,7.0,25,0.00,,,0.00,weatherlink.com 1.10,2013-03-09 21:29:00,
2013-03-09 15:44:00,70.5,34.0,30.00,SSE,160,1.0,6.0,26,0.00,,,0.00,weatherlink.com 1.10,2013-03-09 21:44:00,
2013-03-09 15:59:00,69.7,34.0,30.00,SSE,167,2.0,7.0,27,0.00,,,0.00,weatherlink.com 1.10,2013-03-09 21:59:00,
2013-03-09 16:14:00,69.5,34.0,30.00,SSE,168,2.0,5.0,27,0.00,,,0.00,weatherlink.com 1.10,2013-03-09 22:14:00,
2013-03-09 16:29:00,69.3,34.0,29.99,SSW,195,1.0,5.0,27,0.00,,,0.00,weatherlink.com 1.10,2013-03-09 22:29:00,
2013-03-09 16:44:00,69.0,34.0,29.98,SSE,150,1.0,3.0,28,0.00,,,0.00,weatherlink.com 1.10,2013-03-09 22:44:00,
2013-03-09 16:59:00,68.6,35.0,29.99,South,191,0.0,4.0,29,0.00,,,0.00,weatherlink.com 1.10,2013-03-09 22:59:00,
2013-03-09 17:14:00,68.4,36.0,29.98,SSW,198,0.0,3.0,30,0.00,,,0.00,weatherlink.com 1.10,2013-03-09 23:14:00,
2013-03-09 17:29:00,68.8,36.0,29.98,SSW,210,0.0,2.0,30,0.00,,,0.00,weatherlink.com 1.10,2013-03-09 23:29:00,
2013-03-09 17:44:00,68.4,36.0,29.98,SW,218,0.0,2.0,31,0.00,,,0.00,weatherlink.com 1.10,2013-03-09 23:44:00,
2013-03-09 17:59:00,67.6,37.0,29.99,SSE,166,1.0,3.0,32,0.00,,,0.00,weatherlink.com 1.10,2013-03-09 23:59:00,
2013-03-09 18:14:00,66.7,37.0,29.99,SSE,153,0.0,1.0,34,0.00,,,0.00,weatherlink.com 1.10,2013-03-10 00:14:00,
2013-03-09 18:29:00,65.8,37.0,29.99,SSW,200,0.0,1.0,35,0.00,,,0.00,weatherlink.com 1.10,2013-03-10 00:29:00,
2013-03-09 18:44:00,65.1,38.0,30.00,SSE,155,1.0,2.0,37,0.00,,,0.00,weatherlink.com 1.10,2013-03-10 00:44:00,
2013-03-09 18:59:00,64.3,39.0,29.99,SE,139,0.0,2.0,39,0.00,,,0.00,weatherlink.com 1.10,2013-03-10 00:59:00,
2013-03-09 19:14:00,63.0,39.0,29.98,SE,126,0.0,1.0,41,0.00,,,0.00,weatherlink.com 1.10,2013-03-10 01:14:00,
2013-03-09 19:29:00,62.3,39.0,29.97,SE,127,0.0,3.0,42,0.00,,,0.00,weatherlink.com 1.10,2013-03-10 01:29:00,
2013-03-09 19:44:00,61.7,39.0,29.97,SE,143,0.0,1.0,43,0.00,,,0.00,weatherlink.com 1.10,2013-03-10 01:44:00,
2013-03-09 19:59:00,61.5,39.0,29.96,ESE,122,0.0,0.0,44,0.00,,,0.00,weatherlink.com 1.10,2013-03-10 01:59:00,
2013-03-09 20:14:00,61.2,39.0,29.96,SSE,150,0.0,2.0,44,0.00,,,0.00,weatherlink.com 1.10,2013-03-10 02:14:00,
2013-03-09 20:29:00,61.4,39.0,29.96,SSW,193,2.0,2.0,44,0.00,,,0.00,weatherlink.com 1.10,2013-03-10 02:29:00,
2013-03-09 20:44:00,61.5,39.0,29.97,SSW,194,1.0,3.0,44,0.00,,,0.00,weatherlink.com 1.10,2013-03-10 02:44:00,
2013-03-09 20:59:00,61.9,39.0,29.97,South,171,2.0,4.0,43,0.00,,,0.00,weatherlink.com 1.10,2013-03-10 02:59:00,
2013-03-09 21:14:00,62.0,39.0,29.98,South,190,0.0,5.0,43,0.00,,,0.00,weatherlink.com 1.10,2013-03-10 03:14:00,
2013-03-09 21:29:00,61.6,39.0,29.97,SSW,212,1.0,3.0,44,0.00,,,0.00,weatherlink.com 1.10,2013-03-10 03:29:00,
2013-03-09 21:44:00,61.3,40.0,29.97,ESE,116,1.0,2.0,45,0.00,,,0.00,weatherlink.com 1.10,2013-03-10 03:44:00,
2013-03-09 21:59:00,61.6,39.0,29.97,SSE,150,1.0,5.0,44,0.00,,,0.00,weatherlink.com 1.10,2013-03-10 03:59:00,
2013-03-09 22:14:00,61.8,39.0,29.96,SSE,165,2.0,4.0,44,0.00,,,0.00,weatherlink.com 1.10,2013-03-10 04:14:00,
2013-03-09 22:30:00,62.0,40.0,29.96,SSE,163,3.0,5.0,44,0.00,,,0.00,weatherlink.com 1.10,2013-03-10 04:30:00,
2013-03-09 22:44:00,62.2,39.0,29.95,SE,136,1.0,4.0,43,0.00,,,0.00,weatherlink.com 1.10,2013-03-10 04:44:00,
2013-03-09 22:59:00,62.6,40.0,29.96,SSW,210,5.0,6.0,43,0.00,,,0.00,weatherlink.com 1.10,2013-03-10 04:59:00,
2013-03-09 23:14:00,63.0,40.0,29.95,South,190,2.0,6.0,43,0.00,,,0.00,weatherlink.com 1.10,2013-03-10 05:14:00,
2013-03-09 23:29:00,63.4,40.0,29.96,South,169,3.0,5.0,43,0.00,,,0.00,weatherlink.com 1.10,2013-03-10 05:29:00,
2013-03-09 23:44:00,63.4,41.0,29.96,SSE,155,1.0,5.0,44,0.00,,,0.00,weatherlink.com 1.10,2013-03-10 05:44:00,
2013-03-09 23:59:00,63.5,41.0,29.96,WSW,242,3.0,6.0,44,0.00,,,0.00,weatherlink.com 1.10,2013-03-10 05:59:00,